#timestamp,LO_Frequency,Hit,StdDev 
1612630815.4,286046993.7,N
1612630835.2,286046993.7,N
1612630855.0,286046991.2,N
1612630855.9,286046991.2,N
1612630875.8,286046981.4,N
1612630895.6,286046963.2,Y
1612630915.5,286046963.5,P
1612630935.3,286046969.9,N
1612630955.1,286046978.4,N
1612630975.9,286046984.8,N
1612630995.7,286046978.9,N
1612631015.5,286046986.6,N
1612631035.4,286046992.9,N
1612631055.2,286046988.6,N
1612631075.1,286046986.2,N
1612631076.0,286046986.2,N
1612631095.8,286046997.3,N
1612631115.6,286047002.3,N
1612631135.5,286047011.9,N
1612631155.3,286047004.9,N
1612631175.1,286047002.3,N
1612631195.9,286047000.5,N
1612631215.7,286047013.4,N
1612631235.6,286047016.0,N
1612631255.4,286047026.7,N
1612631275.2,286047027.9,N
1612631295.1,286047019.4,N
1612631296.0,286047019.4,N
1612631315.8,286047017.3,N
1612631335.6,286047027.6,N
1612631355.5,286047034.0,N
1612631375.3,286047031.5,N
1612631395.1,286047027.0,N
1612631415.9,286047031.3,N
1612631435.7,286047034.2,N
1612631455.6,286047038.9,N
1612631475.4,286047037.1,N
1612631495.2,286047039.8,N
1612631515.1,286047037.8,N
1612631516.0,286047037.8,N
1612631535.8,286047030.6,N
1612631555.6,286047029.9,N
1612631575.5,286047024.6,N
1612631595.3,286047019.0,N
1612631615.2,286047021.5,N
1612631635.9,286047022.3,N
1612631655.7,286047030.9,N
1612631675.6,286047035.6,Y
1612631695.4,286047016.8,P
1612631715.2,286047017.1,P
1612631735.1,286047015.1,P
1612631736.0,286047015.1,Y
1612631755.8,286046979.3,P
1612631775.7,286046977.4,N
1612631795.5,286046971.1,N
1612631815.3,286046973.1,N
1612631835.2,286046969.0,N
1612631855.0,286046967.8,N
1612631855.9,286046967.8,N
1612631875.8,286046976.6,N
1612631895.6,286046982.3,N
1612631915.4,286046990.1,N
1612631935.3,286046990.3,N
1612631955.1,286046995.1,N
1612631975.8,286046990.8,N
1612631995.7,286046980.5,N
1612632015.5,286046972.5,N
1612632035.4,286046967.8,N
1612632055.2,286046969.8,N
1612632075.0,286046974.0,N
1612632075.9,286046974.0,N
1612632095.8,286046973.9,N
1612632115.6,286046972.6,N
1612632135.4,286046978.5,N
1612632155.3,286046981.3,N
1612632175.1,286046985.1,N
1612632195.8,286046982.9,N
1612632215.7,286046990.6,N
1612632235.5,286046989.2,N
1612632255.4,286046993.2,N
1612632275.2,286046977.0,N
1612632295.1,286046964.8,Y
1612632296.0,286046964.8,P
1612632315.8,286046986.0,N
1612632335.6,286046986.4,N
1612632355.5,286046992.5,N
1612632375.3,286046993.3,N
1612632395.2,286047004.4,N
1612632415.9,286046999.9,N
1612632435.7,286047009.6,N
1612632455.6,286047011.7,N
1612632475.4,286047007.1,N
1612632525.3,286046999.6,E
1612632535.2,286046997.8,N
1612632555.0,286047005.8,P
1612632555.9,286047005.8,N
1612632575.8,286047008.1,N
1612632595.6,286047005.2,N
1612632615.4,286046993.4,N
1612632635.3,286046989.3,N
1612632655.1,286046994.5,N
1612632675.9,286046991.9,N
1612632695.7,286046997.3,N
1612632715.5,286047001.1,N
1612632735.4,286047001.2,N
1612632755.2,286046998.8,N
1612632775.0,286046997.5,N
1612632775.9,286046997.5,N
1612632795.8,286046991.7,N
1612632815.6,286046993.1,N
1612632835.5,286046998.7,N
1612632855.3,286047008.4,N
1612632875.1,286047010.0,N
1612632895.9,286047006.0,N
1612632915.7,286047006.3,N
1612632935.5,286047011.7,N
1612632955.4,286047008.9,N
1612632975.2,286047010.7,N
1612632995.1,286047008.7,N
1612632996.0,286047008.7,N
1612633015.8,286047010.3,N
1612633035.6,286047009.9,N
1612633055.5,286047003.0,N
1612633075.3,286047017.8,N
1612633095.1,286046991.8,N
1612633115.9,286046997.1,N
1612633135.7,286046993.5,N
1612633155.6,286046988.8,N
1612633175.4,286046990.5,N
1612633195.2,286046991.4,N
1612633215.1,286046990.5,N
1612633216.0,286046990.5,N
1612633235.8,286046988.7,N
1612633255.6,286046995.2,N
1612633275.5,286047002.1,N
1612633295.3,286047008.1,N
1612633315.2,286047020.3,N
1612633335.9,286047025.2,N
1612633355.7,286047020.6,N
1612633375.6,286047013.2,N
1612633395.4,286047010.1,N
1612633415.2,286046994.8,N
1612633435.1,286046996.1,N
1612633436.0,286046996.1,N
1612633455.8,286046995.8,N
1612633475.7,286046996.1,N
1612633495.5,286046995.2,N
1612633515.3,286046996.4,N
1612633535.2,286047000.0,N
1612633555.0,286047002.0,N
1612633555.9,286047002.0,N
1612633575.7,286046999.3,N
1612633595.6,286047002.0,N
1612633615.4,286047002.3,N
1612633635.3,286047003.4,N
1612633655.1,286047010.0,N
1612633656.0,286047010.0,N
1612633675.8,286047006.5,N
1612633695.7,286047005.7,N
1612633715.5,286047003.6,N
1612633735.3,286047004.4,N
1612633755.2,286047012.4,N
1612633775.0,286047005.4,N
1612633775.9,286047005.4,N
1612633795.8,286047004.4,N
1612633815.6,286047002.8,N
1612633835.4,286047005.0,N
1612633855.3,286047015.4,N
1612633875.1,286047020.7,Y
1612633895.9,286047022.1,P
1612633915.7,286047021.1,N
1612633935.5,286047028.3,P
1612633955.4,286047022.2,N
1612633975.2,286047024.4,N
1612633995.0,286047022.8,N
1612633995.9,286047022.8,Y
1612634015.8,286047002.2,P
1612634035.6,286047004.4,N
1612634055.5,286047011.7,N
1612634075.3,286047013.5,N
1612634095.1,286047013.8,N
1612634115.9,286047014.3,N
1612634135.7,286047021.4,Y
1612634155.6,286047013.8,P
1612634175.4,286047017.0,P
1612634195.2,286047022.5,P
1612634215.1,286047019.7,Y
1612634216.0,286047019.7,P
1612634235.8,286046995.1,N
1612634255.6,286046992.3,N
1612634275.5,286046996.0,N
1612634295.3,286046994.8,N
1612634315.2,286046982.2,N
1612634335.9,286046976.7,N
1612634355.7,286046971.5,N
1612634375.6,286046967.4,N
1612634395.4,286046959.7,N
